User: anonymous   Login
Location: Unspecified
(0.0000°N, 0.0000°E)
Time: 09:12:06
(UTC+00:00)
Language:

DNEPR OBJECT AF - Orbit

View from above orbital plane
View from above orbital plane
View from above satellite
View from above satellite

Ground track
Ground track

The orbit data is extracted from the following two-line orbital elements,

1 39445U 13066AF  19345.67587556 +.00000209 +00000-0 +32054-4 0  9991
2 39445 097.5586 351.2686 0058314 169.9539 190.2855 14.81873334325362
Epoch (UTC): 11 December 2019 16:13:15
Eccentricity: 0.0058314
inclination: 97.5586°
perigee height: 582 km
apogee height: 664 km
right ascension of ascending node: 351.2686°
argument of perigee: 169.9539°
revolutions per day: 14.81873334
mean anomaly at epoch: 190.2855°
orbit number at epoch: 32536

The dashed part of the orbit path shows where the satellite is in the earth's shadow,  

DLR